Time,TemperatureF,DewpointF,PressureIn,WindDirection,WindDirectionDegrees,WindSpeedMPH,WindSpeedGustMPH,Humidity,HourlyPrecipIn,Conditions,Clouds,dailyrainin,SoftwareType,DateUTC
2013-03-11 00:03:00,34.0,30.0,-100.00,West,260,1.0,9.0,83,-99.99,,,-99.99,,2013-03-11 04:03:00,
2013-03-11 00:12:00,34.0,30.0,-100.00,SE,130,1.0,2.0,83,-99.99,,,-99.99,,2013-03-11 04:12:00,
2013-03-11 00:22:00,34.0,30.0,-100.00,SE,130,1.0,2.0,83,-99.99,,,-99.99,,2013-03-11 04:22:00,
2013-03-11 01:12:00,33.0,29.0,-100.00,WSW,240,1.0,2.0,86,-99.99,,,-99.99,,2013-03-11 05:12:00,
2013-03-11 01:22:00,33.0,29.0,-100.00,WSW,240,1.0,2.0,86,-99.99,,,-99.99,,2013-03-11 05:22:00,
2013-03-11 02:33:00,34.0,31.0,-100.00,SE,145,2.0,5.0,88,-99.99,,,-99.99,,2013-03-11 06:33:00,
2013-03-11 08:33:00,35.0,31.0,-100.00,South,175,1.0,3.0,86,-99.99,,,-99.99,,2013-03-11 12:33:00,
2013-03-11 14:33:00,51.0,31.0,-100.00,South,170,2.0,9.0,47,-99.99,,,-99.99,,2013-03-11 18:33:00,
2013-03-11 15:33:00,53.0,32.0,-100.00,SW,215,3.0,13.0,44,-99.99,,,-99.99,,2013-03-11 19:33:00,
2013-03-11 17:33:00,51.0,36.0,-100.00,East,95,2.0,7.0,58,-99.99,,,-99.99,,2013-03-11 21:33:00,
2013-03-11 18:30:00,46.0,37.0,-100.00,SSW,200,3.0,15.0,70,-99.99,,,-99.99,,2013-03-11 22:30:00,
2013-03-11 19:12:00,46.0,37.0,-100.00,SSW,200,3.0,15.0,70,-99.99,,,-99.99,,2013-03-11 23:12:00,
2013-03-11 19:22:00,46.0,37.0,-100.00,SSW,200,3.0,15.0,70,-99.99,,,-99.99,,2013-03-11 23:22:00,
2013-03-11 19:43:00,45.0,37.0,-100.00,SSE,165,3.0,10.0,74,-99.99,,,-99.99,,2013-03-11 23:43:00,
2013-03-11 19:54:00,44.0,37.0,-100.00,SSE,165,5.0,10.0,75,-99.99,,,-99.99,,2013-03-11 23:54:00,
2013-03-11 20:02:00,44.0,37.0,-100.00,SSE,155,2.0,9.0,75,-99.99,,,-99.99,,2013-03-12 00:02:00,
2013-03-11 20:13:00,44.0,37.0,-100.00,SSW,195,3.0,9.0,76,-99.99,,,-99.99,,2013-03-12 00:13:00,
2013-03-11 20:23:00,44.0,37.0,-100.00,SSE,155,3.0,8.0,78,-99.99,,,-99.99,,2013-03-12 00:23:00,
2013-03-11 20:43:00,43.0,38.0,-100.00,South,190,5.0,9.0,81,-99.99,,,-99.99,,2013-03-12 00:43:00,
2013-03-11 20:53:00,43.0,38.0,-100.00,South,170,1.0,7.0,82,-99.99,,,-99.99,,2013-03-12 00:53:00,
2013-03-11 21:02:00,43.0,38.0,-100.00,South,170,2.0,8.0,82,-99.99,,,-99.99,,2013-03-12 01:02:00,
2013-03-11 21:12:00,43.0,38.0,-100.00,SW,215,3.0,8.0,83,-99.99,,,-99.99,,2013-03-12 01:12:00,
2013-03-11 21:22:00,42.0,38.0,-100.00,South,170,3.0,8.0,84,-99.99,,,-99.99,,2013-03-12 01:22:00,
2013-03-11 21:33:00,42.0,38.0,-100.00,SSE,155,2.0,9.0,84,-99.99,,,-99.99,,2013-03-12 01:33:00,
2013-03-11 21:42:00,42.0,38.0,-100.00,South,190,2.0,9.0,84,-99.99,,,-99.99,,2013-03-12 01:42:00,
2013-03-11 21:52:00,42.0,38.0,-100.00,South,190,2.0,9.0,85,-99.99,,,-99.99,,2013-03-12 01:52:00,
2013-03-11 22:02:00,42.0,38.0,-100.00,SE,135,3.0,7.0,86,-99.99,,,-99.99,,2013-03-12 02:02:00,
2013-03-11 22:13:00,42.0,38.0,-100.00,SSE,155,2.0,8.0,86,-99.99,,,-99.99,,2013-03-12 02:13:00,
2013-03-11 22:22:00,42.0,38.0,-100.00,SSW,200,2.0,7.0,87,-99.99,,,-99.99,,2013-03-12 02:22:00,
2013-03-11 22:32:00,41.0,38.0,-100.00,SSW,195,2.0,10.0,88,-99.99,,,-99.99,,2013-03-12 02:32:00,
2013-03-11 22:42:00,41.0,38.0,-100.00,SSE,165,2.0,7.0,88,-99.99,,,-99.99,,2013-03-12 02:42:00,
2013-03-11 22:52:00,41.0,38.0,-100.00,SSW,200,2.0,7.0,89,-99.99,,,-99.99,,2013-03-12 02:52:00,
2013-03-11 23:02:00,41.0,38.0,-100.00,South,185,2.0,7.0,89,-99.99,,,-99.99,,2013-03-12 03:02:00,
2013-03-11 23:12:00,40.0,38.0,-100.00,SSW,205,2.0,10.0,90,-99.99,,,-99.99,,2013-03-12 03:12:00,
2013-03-11 23:22:00,41.0,38.0,-100.00,SSW,205,3.0,9.0,90,-99.99,,,-99.99,,2013-03-12 03:22:00,
2013-03-11 23:32:00,41.0,38.0,-100.00,South,190,2.0,6.0,90,-99.99,,,-99.99,,2013-03-12 03:32:00,
2013-03-11 23:42:00,41.0,38.0,-100.00,South,190,2.0,6.0,91,-99.99,,,-99.99,,2013-03-12 03:42:00,